DELTA 1 DEB, 7142

Orbit data source: Space-Track

DELTA 1 DEB, 7142 is space debris in SSO originally from a launch on Tue, 06 Nov 1973 UTC launched from the Air Force Western Test Range (AFWTR). Debris objects in space refer to the collection of defunct objects orbiting the Earth. Examples of debris include non-operational satellites, rocket bodies, and fragments generated from explosions, collisions, or faulty payload assembly.

Loading next visibility...
Identifier
7142, 1973-086DG
Orbit
SSO
Country
Flag of USUS
Related business
Manufacturer
Unknown
Mission
Spacecraft
Bus & Motor
Unknown
Mass
Unknown
Launch date (UTC)
1973-11-06 (52 years ago)
Launch vehicle
Unknown
Launch site
Air Force Western Test Range (AFWTR)
Object type
Payload
Rocket body
Debris
Shape & HBR
Unknown shape, 0.3 m
Radar Cross Section
Medium (>0.1 m² and <1 m²)

Expand to show TLE details & history
Last TLE update: 22 hours ago

TLE from 22 hours ago
0 DELTA 1 DEB
1 07142U 73086DG  25292.21552008  .00000020  00000-0  51442-3 0  9992
2 07142 101.8050 268.1024 0045016 109.2928 271.3088 12.32060977335840
Epoch: 2025-10-19T05:10Z
TLE epoch observation values (Epoch: 2025-10-19T05:10:20.934Z)
Latitude
19.64655°
Longitude
158.32164°
Altitude
1,541.919 km
Speed
7.097 km/s
True Right ascension
17h 35m 22s
True Declination
19° 32' 55"
Sunlit
Object was in daylight at epoch
Visualization orbit readout
Latitude
Unknown
Longitude
Unknown
Altitude
Unknown
Speed
Unknown
Apparent Right ascension
Unknown
Apparent Declination
Unknown
Sunlit
N/A
Visualization observer readout
Local Sidereal Time
21:36:49
Azimuth
Unknown
Elevation
Unknown
Doppler factor
Unknown
Orbital elements
Apogee altitude
1,573.647 km
Perigee altitude
1,502.376 km
Semi-major axis
7,916.149 km
Eccentricity
0.0045
Inclination
101.805°
RAAN
268.1024°
Arg. of periapsis
109.2928°
True anomaly
270.79303°
Mean anomaly
271.3088°
Eccentric anomaly
271.05092°
Mean motion
3.08157 °/min
Orbital period
116.82 mins
BSTAR
0.00051442
Loading maneuver chart data...
Computing Atmospheric mass density...
Loading historical data...
Loading historical data...
Loading historical data...
Loading historical data...
Loading historical data...
Loading historical data...
Loading historical data...

Documentation

Showing up to 5 results
|